TimeCST,TemperatureF,Dew PointF,Humidity,Sea Level PressureIn,VisibilityMPH,Wind Direction,Wind SpeedMPH,Gust SpeedMPH,PrecipitationIn,Events,Conditions,WindDirDegrees,DateUTC
12:00 AM,77,73,83,29.95,12,East,3.5,,,,Mostly Cloudy,100,2013-01-14 06:00:00
3:00 AM,76,73,88,29.93,12,Calm,Calm,,,,Scattered Clouds,,2013-01-14 09:00:00
5:00 AM,75.2,73.4,94,29.95,6.2,East,4.6,-,N/A,,Partly Cloudy,100,2013-01-14 11:00:00
6:00 AM,76,72,86,29.96,12,East,4.6,,,,Scattered Clouds,100,2013-01-14 12:00:00
6:00 AM,75.2,73.4,94,29.95,6.2,East,4.6,-,N/A,,Partly Cloudy,100,2013-01-14 12:00:00
7:00 AM,77.0,73.4,89,29.98,6.2,East,4.6,-,N/A,,Partly Cloudy,100,2013-01-14 13:00:00
8:00 AM,82.4,75.2,79,29.98,6.2,East,5.8,-,N/A,,Partly Cloudy,90,2013-01-14 14:00:00
9:00 AM,81,74,75,30.01,12,East,6.9,,,,Mostly Cloudy,100,2013-01-14 15:00:00
9:00 AM,80.6,75.2,84,30.00,6.2,East,6.9,-,N/A,,Mostly Cloudy,100,2013-01-14 15:00:00
10:00 AM,84.2,73.4,70,30.01,6.2,East,9.2,-,N/A,,Scattered Clouds,100,2013-01-14 16:00:00
11:00 AM,82.4,71.6,70,29.99,6.2,East,9.2,-,N/A,,Scattered Clouds,90,2013-01-14 17:00:00
12:00 PM,82,71,63,29.98,12,ESE,6.9,,,,Partly Cloudy,110,2013-01-14 18:00:00
12:00 PM,82.4,71.6,70,29.97,6.2,ESE,6.9,-,N/A,,Scattered Clouds,110,2013-01-14 18:00:00
1:00 PM,84.2,73.4,70,29.95,6.2,ESE,6.9,-,N/A,,Mostly Cloudy,110,2013-01-14 19:00:00
2:00 PM,82.4,73.4,74,29.94,6.2,East,10.4,-,N/A,,Scattered Clouds,80,2013-01-14 20:00:00
3:00 PM,84,73,63,29.95,12,East,8.1,,,,Partly Cloudy,90,2013-01-14 21:00:00
3:00 PM,84.2,73.4,70,29.94,6.2,East,8.1,-,N/A,,Scattered Clouds,90,2013-01-14 21:00:00
4:00 PM,82.4,73.4,74,29.95,6.2,East,9.2,-,N/A,,Scattered Clouds,90,2013-01-14 22:00:00
5:00 PM,80.6,73.4,79,29.97,6.2,East,6.9,-,N/A,,Partly Cloudy,90,2013-01-14 23:00:00
6:00 PM,78.8,73.4,83,29.98,6.2,East,5.8,-,N/A,,Partly Cloudy,90,2013-01-15 00:00:00
9:00 PM,76,73,88,29.99,12,East,3.5,,,,Scattered Clouds,100,2013-01-15 03:00:00